ASTRA 5B

Last updated on Wed Sep 17 2025 00:02:48 GMT+0000 (Coordinated Universal Time)

1 39617U 14011B 25259.58841204 .00000117 00000+0 00000+0 0 9995 2 39617 0.0909 299.9669 0003357 258.5671 32.5506 1.00271144 41925
UTC large
Height (km)
Speed (km/s)
/
Latitude / Longitude
Inclination (degrees)
Orbital Period (minutes)
Azimuth
Elevation
Range (km)
Doppler Factor

Next 0 passes for location: London (51.5072 / 0.1276)

Sorry there are no passes over London.